NOAA NWS Hourly Roundups by Site

Regional Weather Roundup for Omaha, NE

To Select Another Site Choose from List

Select Site:  

000
ASUS43 KOAX 251813
RWRNE

WEATHER ROUNDUP FOR NEBRASKA
NATIONAL WEATHER SERVICE OMAHA NE
1200 PM CST SUN FEB 25 2024

NOTES: SATELLITE DATA IS BEING USED TO AUGMENT CLOUD COVER ABOVE
       12000 FEET.
       "FAIR" INDICATES FEW OR NO CLOUDS BELOW 12,000 FEET WITH NO
       SIGNIFICANT WEATHER AND/OR OBSTRUCTIONS TO VISIBILITY.


NEZ001>004-019>022-054>056-251900-
NEBRASKA PANHANDLE

CITY           SKY/WX    TMP DP  RH WIND       PRES   REMARKS
SCOTTSBLUFF    SUNNY     59  16  18 W30G49    29.82F
6HR MIN TEMP:  36; 6HR MAX TEMP:  60;

ALLIANCE       SUNNY     58  19  22 W18G31    29.80F
6HR MIN TEMP:  32; 6HR MAX TEMP:  58;

CHADRON        SUNNY     58  22  24 W18G31    29.77F
6HR MIN TEMP:  25; 6HR MAX TEMP:  58;

GORDON         SUNNY     54  21  27 W18G26    29.77R
6HR MIN TEMP:  31; 6HR MAX TEMP:  54;

KIMBALL        SUNNY     57   8  14 W25G35    29.88F
SIDNEY         SUNNY     61   5  10 W20G36    29.86F
6HR MIN TEMP:  24; 6HR MAX TEMP:  61;

$$

NEZ057>060-069>072-079>082-251900-
SOUTHWEST NEBRASKA

CITY           SKY/WX    TMP DP  RH WIND       PRES   REMARKS
NORTH PLATTE   SUNNY     64  23  21 W17G28    29.82S
6HR MIN TEMP:  22; 6HR MAX TEMP:  64;

GRANT          SUNNY     63  12  14 W22G29    29.84F
IMPERIAL       SUNNY     67   8  10 NW26G37   29.85F
6HR MIN TEMP:  30; 6HR MAX TEMP:  67;

LEXINGTON      SUNNY     62  20  20 NW16      29.83S
MCCOOK         SUNNY     67  19  16 W13       29.84F
6HR MIN TEMP:  28; 6HR MAX TEMP:  67;

OGALLALA       SUNNY     62   7  11 W20G25    29.83F
$$

NEZ005>010-023>029-035>040-094-251900-
NORTH CENTRAL NEBRASKA

CITY           SKY/WX    TMP DP  RH WIND       PRES   REMARKS
VALENTINE      SUNNY     55  25  31 W9        29.75F
6HR MIN TEMP:  22; 6HR MAX TEMP:  55;

AINSWORTH      SUNNY     55  25  31 SW9       29.78S
BROKEN BOW     SUNNY     57  27  31 W9        29.79F
6HR MIN TEMP:  31; 6HR MAX TEMP:  58;

O`NEILL        SUNNY     52  28  38 W3        29.81R
ORD            SUNNY    N/A N/A N/A SE3       29.79S
THEDFORD       SUNNY     60  15  16 W14G20    29.78F
$$

NEZ041-046>049-061>064-073>077-083>087-251900-
SOUTH CENTRAL NEBRASKA

CITY           SKY/WX    TMP DP  RH WIND       PRES   REMARKS
GRAND ISLAND   SUNNY     59  25  27 W10       29.80F
6HR MIN TEMP:  33; 6HR MAX TEMP:  59;

AURORA         SUNNY     56  28  32 W10       29.79F
HASTINGS       SUNNY     61  24  24 NW14      29.81S
6HR MIN TEMP:  34; 6HR MAX TEMP:  61;

HEBRON         SUNNY     65  24  21 NW12      29.81S
HOLDREGE       SUNNY     61  24  25 W12       29.82F
KEARNEY        SUNNY     63  22  20 NW15      29.81F
YORK           SUNNY     55  27  33 W10       29.79S
$$

NEZ011>018-030>034-042>045-251900-
NORTHEAST NEBRASKA

CITY           SKY/WX    TMP DP  RH WIND       PRES   REMARKS
NORFOLK        SUNNY     57  30  35 CALM      29.77S
6HR MIN TEMP:  24; 6HR MAX TEMP:  57;

ALBION         SUNNY     55  22  27 CALM      29.79S
BLAIR          SUNNY     58  28  31 NE7       29.77S
COLUMBUS       SUNNY     56  28  34 VRB5      29.79F
FREMONT        SUNNY     58  25  27 E6        29.77F
TEKAMAH        SUNNY     60  30  32 N9        29.77F
6HR MIN TEMP:  26; 6HR MAX TEMP:  60;

WAYNE            N/A    N/A N/A N/A MISG        N/A
$$

NEZ050>053-065>068-078-088>093-251900-
SOUTHEAST NEBRASKA

CITY           SKY/WX    TMP DP  RH WIND       PRES   REMARKS
LINCOLN        SUNNY     59  25  27 CALM      29.79F
6HR MIN TEMP:  27; 6HR MAX TEMP:  59;

OMAHA EPPLEY   SUNNY     60  26  27 E7        29.77R
6HR MIN TEMP:  25; 6HR MAX TEMP:  61;

BEATRICE       SUNNY     62  30  29 NW8         N/A
FALLS CITY     SUNNY     65  30  27 W8        29.78S
6HR MIN TEMP:  31; 6HR MAX TEMP:  65;

NEBRASKA CITY  SUNNY     60  26  27 W7        29.78S
PLATTSMOUTH    SUNNY     60  26  26 SW5       29.77S
$$

NEZ044-045-051>053-067-251900-
OMAHA AREA

CITY           SKY/WX    TMP DP  RH WIND       PRES   REMARKS
OMAHA EPPLEY   SUNNY     60  26  27 E7        29.77R
6HR MIN TEMP:  25; 6HR MAX TEMP:  61;

BLAIR          SUNNY     58  28  31 NE7       29.77S
FREMONT        SUNNY     58  25  27 E6        29.77F
MILLARD        SUNNY     58  25  27 E6        29.77F
OFFUTT AFB     SUNNY     59  23  25 CALM      29.76R
PLATTSMOUTH    SUNNY     60  26  26 SW5       29.77S
WAHOO          SUNNY     58  28  31 E6        29.77F
$$


 

View Past Reports for Omaha, NE.

Products Courtesy of NOAA-NWS
NWS Information Parsing Script by Ken True at Saratoga Weather - Script by SE Lincoln Weather.